Showing default

CHINASAT 1C, 41103

Orbit data source: Space-Track

CHINASAT 1C, 41103 is a payload satellite owned by PLA GAD (CN) in GEO that was launched on Wed, 09 Dec 2015 UTC via a CHANG ZHENG 3B launch vehicle from the Xichang Space Center, China (XSC). Payload-class satellites include a variety of spacecraft equipped with specific instruments for various scientific and technological missions. These include communications satellites like Starlink; space stations such as the ISS; scientific satellites like the Hubble; Earth observation satellites from companies like Planet Labs, Umbra, and HawkEye 360; GPS; miniature CubeSats for education and research; and military/defense satellites.

Loading next visibility...
Identifier
41103, 2015-073A
Orbit
GEO
Last TLE update
1 day ago
Origin
Manufacturer
CAST?
Mission
Non-operational Defense Communications
Bus & Motor
DFH-4?, DFH-4 LAE
Mass
~5,000 kg wet, ~2,500 kg dry
Launch date (UTC)
2015-12-09 (10 years ago)
Launch vehicle
CHANG ZHENG 3B
Launch site
Xichang Space Center, China (XSC)
Object type
Payload
Rocket body
Debris
Shape & HBR
Box + 2 Pan, 30 m
Radar Cross Section
34.063 m², Large (>1 m²)

Expand to show TLE details & history

TLE from 1 day ago
0 CHINASAT 1C
1 41103U 15073A   25185.55559363 -.00000216  00000-0  00000-0 0  9997
2 41103   6.2201  73.0294 0004718 160.2118 201.1451  0.99169444 35105
Epoch: 2025-07-04T13:20Z
TLE epoch observation values (Epoch: 2025-07-04T13:20:03.289Z)
Latitude
0.15936°
Longitude
-48.4552°
Altitude
36,116.685 km
Speed
3.062 km/s
True Right ascension
04h 57m 27s
True Declination
0° 09' 33"
Sunlit
Object was in daylight at epoch
Visualization orbit readout
Latitude
4.87217°
Longitude
1.24558°
Altitude
36,104.231 km
Speed
3.063 km/s
Apparent Right ascension
08h 38m 40s
Apparent Declination
0° 40' 35"
Sunlit
Object is in daylight
Visualization observer readout
Local Sidereal Time
04:48:36
Azimuth
112.745° SE
Elevation
23.847°
Doppler factor
1
Orbital elements
Apogee altitude
36,119.566 km
Perigee altitude
36,079.484 km
Semi-major axis
42,477.662 km
Eccentricity
0.00047
Inclination
6.2201°
RAAN
73.0294°
Arg. of periapsis
160.2118°
True anomaly
Unknown
Mean anomaly
201.1451°
Eccentric anomaly
Unknown
Mean motion
0.24791 °/min
Orbital period
1,452.11 mins
BSTAR
0
Loading historical data...
41103 neighbors
Loading maneuver chart data...
Loading SW <> Apogee altitude chart data...
Loading historical data...
Loading historical data...
Loading historical data...
Loading historical data...
Loading historical data...
Loading historical data...
Loading historical data...
Other satellites on launch #73 in the year 2015 (2015-12-09 UTC)

CHINASAT 1C Visibility forecast

Observer location: undefined°, undefined°

Span
Click to sort rows by Start time (UTC) header in descending order
Start Az.
Max El. time (UTC)
Max El. Az.
Max El.
End time (UTC)
End Az.
1440 mins2025-07-05 16:53:19.284Z112.761° SE2025-07-06 16:53:19.284Z116.307° SE24.156°2025-07-06 16:53:19.284Z116.307° SE
|